Clarksburg, WV

3:12 PM EST on November 15, 2019 (GMT -0500)
Benedum

Weather History for KCKB - September, 2019

Change the Weather History Date:

Sunday, September 15, 2019

  Actual Average Record
Temperature  
Mean Temperature 70 °F -  
Max Temperature 87 °F 79 °F 93 °F (1936)
Min Temperature 53 °F 54 °F 36 °F (1964)
Cooling Degree Days 4    
Growing Degree Days 20 (Base 50)    
Moisture  
Dew Point 53 °F    
Average Humidity 70    
Maximum Humidity 93    
Minimum Humidity 29    
Precipitation  
Precipitation 0.00 in - - ()
Sea Level Pressure  
Sea Level Pressure 30.19 in    
Wind  
Wind Speed 0 mph (North)    
Max Wind Speed 5 mph    
Max Gust Speed -    
Visibility 7 miles    
Events Fog    
Averages and records for this station are not official NWS values.
T = Trace of Precipitation, MM = Missing Value Source: NWS Daily Summary

Daily Weather History Graph

Daily Weather History Graph

Search for Another Location

Airport or City:

Astronomy

Sep. 15, 2019 Rise Set
Actual Time 7:01 AM EDT 7:29 PM EDT
Civil Twilight 6:35 AM EDT 7:56 PM EDT
Nautical Twilight 6:03 AM EDT 8:28 PM EDT
Astronomical Twilight 5:30 AM EDT 9:00 PM EDT
Moon 8:37 PM EDT 8:10 AM EDT
Length of Visible Light 13h 21m
Length of Day
12h 27m
Full, 98% of the Moon is Illuminated
Sep 15
Full
Sep 21
Last Quarter
Sep 28
New
Oct 5
First Quarter
Oct 13
Full

Hourly Weather History & Observations

Time (EDT) Temp. Dew Point Humidity Pressure Visibility Wind Dir Wind Speed Gust Speed Precip Events Conditions
12:53 AM 59.0 °F 54.0 °F 83% 30.20 in 10.0 mi Calm Calm - N/A   Clear
1:53 AM 57.9 °F 54.0 °F 87% 30.22 in 10.0 mi Calm Calm - N/A   Clear
2:53 AM 59.0 °F 54.0 °F 83% 30.21 in 10.0 mi Calm Calm - N/A   Clear
3:53 AM 57.0 °F 53.1 °F 87% 30.21 in 10.0 mi Calm Calm - N/A   Clear
4:39 AM 55.9 °F 52.0 °F 87% 30.25 in 1.8 mi Calm Calm - N/A   Clear
4:45 AM 57.0 °F 52.0 °F 83% 30.25 in 3.0 mi Calm Calm - N/A   Haze
4:53 AM 55.9 °F 52.0 °F 87% 30.21 in 10.0 mi Calm Calm - N/A   Clear
5:40 AM 55.0 °F 52.0 °F 89% 30.25 in 1.0 mi Calm Calm - N/A   Mist
5:42 AM 54.0 °F 52.0 °F 93% 30.25 in 0.5 mi Calm Calm - N/A Fog Fog
5:53 AM 55.9 °F 52.0 °F 87% 30.21 in 1.0 mi Calm Calm - N/A   Mist
5:55 AM 55.0 °F 52.0 °F 89% 30.25 in 3.0 mi Calm Calm - N/A   Partly Cloudy
6:04 AM 55.0 °F 51.1 °F 86% 30.24 in 1.0 mi Calm Calm - N/A   Mist
6:11 AM 53.1 °F 50.0 °F 89% 30.24 in 0.5 mi Calm Calm - N/A Fog Fog
6:18 AM 54.0 °F 50.0 °F 86% 30.24 in 0.5 mi Calm Calm - N/A Fog Fog
6:23 AM 54.0 °F 51.1 °F 90% 30.24 in 0.8 mi Calm Calm - N/A   Mist
6:53 AM 55.0 °F 51.1 °F 86% 30.21 in 0.2 mi Calm Calm - N/A Fog Fog
7:09 AM 53.1 °F 50.0 °F 89% 30.24 in 4.0 mi Calm Calm - N/A   Partly Cloudy
7:53 AM 55.9 °F 52.0 °F 87% 30.21 in 10.0 mi Calm Calm - N/A   Clear
8:53 AM 62.1 °F 55.9 °F 80% 30.21 in 10.0 mi Calm Calm - N/A   Clear
9:53 AM 69.1 °F 57.9 °F 68% 30.23 in 10.0 mi Calm Calm - N/A   Clear
10:53 AM 73.9 °F 55.9 °F 53% 30.22 in 10.0 mi Variable 4.6 mph - N/A   Clear
11:53 AM 78.1 °F 54.0 °F 43% 30.21 in 10.0 mi Calm Calm - N/A   Clear
12:53 PM 82.0 °F 48.0 °F 30% 30.18 in 10.0 mi Variable 3.5 mph - N/A   Clear
1:53 PM 84.0 °F 50.0 °F 31% 30.17 in 10.0 mi North - - N/A   Clear
2:53 PM 84.0 °F 48.9 °F 29% 30.14 in 10.0 mi North 3.5 mph - N/A   Clear
3:53 PM 84.9 °F 51.1 °F 31% 30.12 in 10.0 mi Calm Calm - N/A   Clear
4:53 PM 86.0 °F 51.1 °F 30% 30.10 in 10.0 mi Calm Calm - N/A   Clear
5:53 PM 84.0 °F 51.1 °F 32% 30.10 in 10.0 mi North 3.5 mph - N/A   Clear
7:53 PM 75.0 °F 53.1 °F 46% 30.10 in 10.0 mi Calm Calm - N/A   Clear
8:53 PM 71.1 °F 55.0 °F 57% 30.10 in 10.0 mi Calm Calm - N/A   Scattered Clouds
9:53 PM 68.0 °F 57.9 °F 70% 30.09 in 10.0 mi Calm Calm - N/A   Mostly Cloudy
10:53 PM 69.1 °F 55.9 °F 63% 30.09 in 10.0 mi Calm Calm - N/A   Overcast
11:53 PM 66.9 °F 57.9 °F 73% 30.09 in 10.0 mi Calm Calm - N/A   Scattered Clouds